This is the latest recevied weather packets stored in our database for station/object HB9KBJ-8. If no packets are shown the sender has not sent any weather packets the latest 1 day(s).
| Time | Temp. | Humidity | Pressure | Rain* | Wind** | Luminosity | Snow |
|---|---|---|---|---|---|---|---|
| 1778046143 | 9.44° C | 88% | 1007 hPa | 0 mm | 0 m/s | 79 W/m² | - |
| 1778045841 | 9.44° C | 88% | 1007 hPa | 0 mm | 0 m/s | 74 W/m² | - |
| 1778045542 | 8.89° C | 88% | 1007 hPa | 0 mm | 0 m/s | 69 W/m² | - |
| 1778045236 | 8.89° C | 88% | 1007 hPa | 0 mm | 0 m/s | 67 W/m² | - |
| 1778044937 | 8.89° C | 88% | 1007.1 hPa | 0 mm | 0 m/s | 62 W/m² | - |
| 1778044643 | 8.89° C | 88% | 1007.1 hPa | 0 mm | 0 m/s | 58 W/m² | - |
| 1778044343 | 8.89° C | 92% | 1007.1 hPa | 0 mm | 0 m/s | 53 W/m² | - |
| 1778044043 | 8.89° C | 88% | 1007.2 hPa | 0 mm | 0 m/s | 47 W/m² | - |
| 1778043743 | 8.89° C | 92% | 1007 hPa | 0 mm | 0 m/s | 44 W/m² | - |
| 1778043440 | 8.89° C | 88% | 1007.1 hPa | 0 mm | 0 m/s | 39 W/m² | - |
| 1778043140 | 8.89° C | 88% | 1007 hPa | 0 mm | 0 m/s | 33 W/m² | - |
| 1778042836 | 8.89° C | 88% | 1007 hPa | 0 mm | 0 m/s | 26 W/m² | - |
| 1778042549 | 8.89° C | 88% | 1007 hPa | 0 mm | 0 m/s | 23 W/m² | - |
| 1778042243 | 8.89° C | 88% | 1007 hPa | 0 mm | 0 m/s | 19 W/m² | - |
| 1778041936 | 9.44° C | 88% | 1007 hPa | 0 mm | 0 m/s | 16 W/m² | - |
| 1778041640 | 8.89° C | 88% | 1007 hPa | 0 mm | 0 m/s | 12 W/m² | - |
| 1778041353 | 8.89° C | 88% | 1007 hPa | 0 mm | 0 m/s | 9 W/m² | - |
| 1778041033 | 9.44° C | 88% | 1007.1 hPa | 0 mm | 0 m/s | 5 W/m² | - |
| 1778040736 | 9.44° C | 88% | 1007 hPa | 0 mm | 0 m/s | 0 W/m² | - |
| 1778040451 | 9.44° C | 88% | 1007 hPa | 0 mm | 0 m/s | 0 W/m² | - |
| 1778040139 | 9.44° C | 88% | 1007 hPa | 0 mm | 0 m/s | 0 W/m² | - |
| 1778039838 | 9.44° C | 88% | 1007 hPa | 0 mm | 0 m/s | 0 W/m² | - |
| 1778039535 | 9.44° C | 88% | 1007.2 hPa | 0 mm | 0 m/s | 0 W/m² | - |
| 1778039235 | 9.44° C | 88% | 1007.2 hPa | 0 mm | 0 m/s | 0 W/m² | - |
| 1778038936 | 9.44° C | 88% | 1007.3 hPa | 0 mm | 0 m/s | 0 W/m² | - |
* Rain latest hour (hover to see other rain measurements)
** Current wind speed in m/s (hover to see current wind gust speed)